Regional Weather Roundup
Issued by NWS Grand Forks, ND

Home | Current Version | Previous Version | Text Only | Print | Product List | Glossary On
Versions: 1 2 3 4 5 6 7 8 9 10 11 12 13 14 15 16 17 18 19 20 21 22 23 24 25 26 27 28 29 30 31 32 33 34 35 36 37 38 39 40 41 42 43 44 45 46 47 48 49 50
000
ASUS43 KFGF 110731
RWRFGF
PRAIRIE TO PINES  WEATHER ROUNDUP
NATIONAL WEATHER SERVICE EASTERN NORTH DAKOTA/GRAND FORKS ND
100 AM CST SUN DEC 11 2016

 **SATELLITE DATA USED TO AUGMENT SKY COVER AT AUTOMATED STATIONS**
 *****  WEATHER ACROSS EASTERN NORTH DAKOTA  *****

CITY           SKY/WX    TMP DP  RH WIND       PRES   REMARKS
GRAND FORKS    CLOUDY    -6 -11  79 NE8       30.16F WCI -21
GRAND FRKS AFB FLURRIES  -8 -13  77 NE7       30.15F WCI -22
DEVILS LAKE    FLURRIES  -4  -8  83 E9        30.09F WCI -20
FARGO          LGT SNOW   8   1  73 E9        30.09F WCI  -5
WAHPETON ARPT  CLOUDY    10   5  79 E12G17    30.04F WCI  -4
$$

 ***** WEATHER ACROSS CENTRAL AND WESTERN NORTH DAKOTA  *****

CITY           SKY/WX    TMP DP  RH WIND       PRES   REMARKS
BISMARCK       LGT SNOW   0  -4  83 NE6       29.99R FOG     WCI -12
MINOT          LGT SNOW  -2  -7  79 E12       30.00F WCI -20
JAMESTOWN      FLURRIES   0  -4  83 E10       30.01F WCI -16
MINOT AFB      LGT SNOW  -2  -8  78 E10       30.00F WCI -19
GARRISON         N/A     -3  -7  82 E10       29.97F WCI -20
WILLISTON      CLOUDY     0  -6  76 SE13      29.92S WCI -18
DICKINSON      CLOUDY    -2  -6  83 E10       29.83S WCI -19
HETTINGER      CLOUDY     0  -5  79 E3        29.85R
$$

 *****  OTHER AIRPORT OBSERVATIONS IN OUR AREA  *****

CITY           SKY/WX    TMP DP  RH WIND       PRES   REMARKS
WALHALLA         N/A     -8  -8 100 NW5       30.20F WCI -19
GRAFTON AIRPOR FAIR      -6 -11  77 NE8       30.20F WCI -21
VALLEY CITY AR CLOUDY     0   0 100 NE9       30.04F WCI -16
CANDO          CLOUDY    -2  -8  78 E7        30.11F WCI -16
CAVALIER APRT    N/A     -8 -11  84 N6        30.20F WCI -21
GWINNER        CLOUDY    10   7  85 NE15      29.99F WCI  -6
SHEYENNE NWR     N/A      6   0  77 E10       29.95  WCI  -9
ROLLA          CLOUDY    -6  -9  84 E8        30.06F WCI -21
 ***** THE ABOVE OBSERVATIONS ARE NON NWS ARE NOT QUALITY
       CONTROLLED AND MAY MIS-REPORT RAIN FOR SNOW...
$$

  *****  WEATHER ACROSS NORTHERN MINNESOTA  *****

CITY           SKY/WX    TMP DP  RH WIND       PRES   REMARKS
FLAG ISLAND    CLOUDY    -2  -6  84 E5        30.21  WCI -12
WARROAD        CLOUDY    -2  -6  84 E7        30.20F WCI -16
ROSEAU         CLOUDY   -13 -18  77 E5        30.20F WCI -25
HALLOCK        CLOUDY    -6  -9  84 E9        30.19F WCI -22
THF RVR FALLS  CLOUDY    -7 -11  83 E12       30.16F WCI -26
BAUDETTE       PTCLDY    -7 -12  79 E6        30.19F WCI -20
WASKISH        CLOUDY    -8 -11  84 E3        30.18S
CROOKSTON      CLOUDY    -2  -8  78 E9        30.15F WCI -18
STEPHEN NDAWN    N/A     -6  -9  84 E6          N/A  WCI -18
GREENBUSH NDAW   N/A     -8 -11  84 E3          N/A
$$
  *****  WEATHER ACROSS CENTRAL AND WEST MINNESOTA  *****

CITY           SKY/WX    TMP DP  RH WIND       PRES   REMARKS
FOSSTON        CLOUDY    -6  -9  84 E7        30.11F WCI -20
BEMIDJI        LGT SNOW  -3  -6  87 E6        30.12S WCI -15
PARK RAPIDS    CLOUDY     4  -3  73 E7        30.09F WCI  -8
ELBOW LAKE     LGT SNOW  10   6  85 E12       30.01F WCI  -5
WADENA         FLURRIES   7   1  78 E8        30.06F WCI  -6
DETROIT LAKES  LGT SNOW   9   3  78 E6        30.06F WCI  -1
MOORHEAD       MIX PCPN   7   1  78 E9        30.07F WCI  -7
FERGUS FALLS   CLOUDY     9   3  78 E14       30.08F WCI  -8
MORRIS MN      LGT SNOW  10   9  92 E17G23    29.98F WCI  -7
STAPLES        NOT AVBL
$$
  *****  WEATHER ELSEWHERE ACROSS MINNESOTA  *****

CITY           SKY/WX    TMP DP  RH WIND       PRES   REMARKS
DULUTH         CLOUDY     4   1  88 E3        30.14F
INTRNTL FALLS  CLOUDY   -11 -16  78 SE3       30.21F
ELY            CLOUDY   -13 -17  84 CALM      30.17F
CLOQUET        CLOUDY     7   0  72 E3        30.14F
WHEATON        LGT SNOW  12  10  92 E12       30.04S WCI  -2
BRAINERD       CLOUDY     8   4  83 NE7       30.10F WCI  -3
HIBBING        CLOUDY   -11 -15  82 CALM      30.15F
ALEXANDRIA     FLURRIES  10   5  80 E14       30.03F WCI  -6
SAINT CLOUD    LGT SNOW  12   9  87 E7        30.07F FOG     WCI   1
MINNEAPOLIS    LGT SNOW  15  11  83 E12       30.07F FOG     WCI   2
$$

  *****  WEATHER ACROSS SOUTH DAKOTA  *****

CITY           SKY/WX    TMP DP  RH WIND       PRES   REMARKS
SIOUX FALLS    CLOUDY    21  19  92 SE15      29.84F WCI   8
BROOKINGS      NOT AVBL
WATERTOWN      LGT SNOW   9   5  84 E13G20    29.87F VSB 1   WCI  -7
HURON          LGT SNOW  17  16  95 E10       29.85F VSB 1   WCI   5
SISSETON         N/A     10   7  87 SE5       30.00F WCI   2
ABERDEEN       LGT SNOW  11   5  77 NE9       29.95R WCI  -2
MITCHELL       CLOUDY    23  20  88 SE13      29.82F WCI  11
PIERRE         LGT SNOW  10   6  84 NE9       29.83F FOG     WCI  -3
MOBRIDGE       LGT SNOW   7   0  73 NE5       29.88S VSB 1   WCI  -2
RAPID CITY     CLOUDY     6   2  83 W6        29.77F WCI  -4
$$

  *****  SOME WEATHER IN NEARBY STATES *****

CITY           SKY/WX    TMP DP  RH WIND       PRES   REMARKS
GLASGOW MT     CLOUDY     0  -4  83 NW7       29.89S WCI -13
GREAT FALLS MT CLOUDY    -1  -5  82 E7        29.84R WCI -14
CHEYENNE WY    CLOUDY    37  26  64 NW15G31   29.75R
SCOTTSBLUFF NE CLOUDY    35  22  58 N23G32    29.73R WCI  23
OMAHA NE       CLOUDY    31  19  61 SE14      29.84F WCI  21
DES MOINES IA  CLOUDY    28  20  71 E8        29.96F WCI  20
DAVENPORT IA   FLURRIES  25  20  81 E12       30.11F WCI  14
CHICAGO IL     LGT SNOW  23  21  92 SE12      30.23F FOG     WCI  12
EAU CLAIRE WI  LGT SNOW  14  11  87 E7        30.16F FOG     WCI   4
LA CROSSE WI   LGT SNOW  19  15  84 E3        30.15F FOG
$$

  *****  SOME NATIONAL WEATHER *****

CITY           SKY/WX    TMP DP  RH WIND       PRES   REMARKS
LA GUARDIA NY  PTCLDY    31  17  56 NW9       30.48R WCI  23
RALEIGH NC     CLOUDY    26  17  68 CALM      30.51R
ATLANTA GA     PTCLDY    36  22  56 SE6       30.39F
NEW ORLEANS LA CLEAR     40  34  79 CALM      30.33F
OKLAHOMA CITY  CLOUDY    49  43  80 S26G41    29.87F
ALBUQUERQUE NM CLOUDY    35  30  82 SE7       30.04S
SALT LAKE CITY LGT RAIN  35  34  96 E3        29.94S
LOS ANGELES CA CLOUDY    60  59  96 W7        30.13R
BOISE ID       FOG       30  30 100 CALM      30.01R VSB 1/4
SEATTLE WA     LGT RAIN  42  39  89 S15G23    29.89R
$$

*** WEATHER ACROSS MANITOBA...SASKATCHEWAN AND ONTARIO ***
                ***ONTARIO***

CITY           SKY/WX    TMP DP  RH WIND       PRES   REMARKS
GERALDTON      FLURRIES   1  -2  85 CALM      30.25S
THUNDER BAY    PTCLDY    -2  -6  84 SW6       30.29F WCI -14
SIOUX LOOKOUT  PTCLDY   -22 -27  76 CALM      30.22F
TORONTO        PTCLDY    19  14  79 W7        30.35S WCI  10
BIG TROUT LK   CLEAR    -11 -17  77 SW8       30.24S WCI -28
PICKLE LAKE    NOT AVBL
DRYDEN         CLEAR    -11 -15  84 E5        30.20F WCI -23
KENORA         PTCLDY    -6  -9  84 E6        30.19F WCI -18
$$
                *** MANITOBA***

CITY           SKY/WX    TMP DP  RH WIND       PRES   REMARKS
BRANDON        CRYSTALS -15 -20  76 NE7       30.15F WCI -31
DAUPHIN        CLEAR    -24 -29  76 W8        30.19S WCI -43
ISLAND LAKE    NOT AVBL
PILOT MOUND      N/A    -11 -15  84 E7          N/A  WCI -26
THE PAS        CLEAR    -13 -20  70 VRB2      30.14F
THOMPSON       PTCLDY   -13 -18  77 SW5       30.10F WCI -25
WINNIPEG       CRYSTALS -11 -15  84 E5        30.25F WCI -23
LYNN LAKE      MOCLDY   -15 -18  84 SW7       29.97F WCI -31
CHURCHILL      PTCLDY   -11 -17  77 SW10      30.00F WCI -30
GILLAM         PTCLDY    -9 -15  77 SW10      30.11F WCI -28
$$
                ***SASKATCHEWAN***

CITY           SKY/WX    TMP DP  RH WIND       PRES   REMARKS
ESTEVAN        NOT AVBL
KINDERSLEY     CLOUDY     1  -2  85 S3        29.92F
LLOYDMINSTER   FLURRIES  -2  -6  84 NW5       29.95F WCI -12
PRINCE ALBERT  PTCLDY   -15 -20  76 E2        30.06F
REGINA         MOCLDY    -9 -17  70 SE10      29.99F WCI -28
YORKTON        CLEAR    -17 -22  76 SE3       30.09F
N. BATTLEFORD  FLURRIES  -6 -11  77 SE6       30.02S WCI -18
LA RONGE       FLURRIES  -9 -15  77 S3        30.05F
SASKATOON      PTCLDY    -8 -13  77 SE6       30.03F WCI -21
SWIFT CURRENT  CLEAR     -4  -8  84 SE6       29.86S WCI -16
$$
NOTE: THESE ARE AUTOMATED STATIONS WITH LIMITED QUALITY CONTROL
      "FAIR" INDICATES FEW OR NO CLOUDS BELOW 12,000 FEET WITH NO
      SIGNIFICANT WEATHER AND/OR OBSTRUCTIONS TO VISIBILITY.
      SKY/WX - SKY CONDITION AND SIGNIFICANT WEATHER.
      TMP - AIR TEMPERATURE.    DP   - DEWPOINT TEMPERATURE.
      RH  - RELATIVE HUMIDITY.  PRES - PRESSURE.
      HX  - HEAT INDEX.         WCI  - WIND CHILL INDEX.
$



USA.gov is the U.S. government's official web portal to all federal, state and local government web resources and services.